Home > Weather > Rio de Janeiro > Past weeks

Flag for Brazil Past Weather in Rio de Janeiro, Rio de Janeiro, Brazil — Yesterday and Last 2 Weeks

Now
72 °F

Passing clouds.


Feels Like: 69 °F
Forecast: 66 / 77 °F
Wind: 8 mph from South

Location: Rio De Janeiro Airport

Current Time: May 28, 2016 at 9:13:28 PM

Latest Report: May 28, 2016 at 8:00 PM


Visibility: N/A

Pressure: 30.15 "Hg

Humidity: 88%

Dew Point: 68 °F

Location of Rio de JaneiroLocation

Past Weather in Rio de Janeiro — Graph

°F

Rio de Janeiro Temperature Yesterday

Maximum temperature yesterday: 79 °F (at 12:00 PM)
Minimum temperature yesterday: 68 °F (at 4:00 AM)
Average temperature yesterday: 73 °F

High & Low Weather Summary for the Past Weeks

 TemperatureHumidityPressure
High88 °F (May 16, 1:00 PM)100% (May 18, 9:00 AM)30.33 "Hg (May 18, 9:00 AM)
Low64 °F (May 24, 5:00 AM)45% (May 15, 3:00 PM)29.80 "Hg (May 16, 1:00 PM)
Average73 °F80%30.08 "Hg
* Reported May 13 8:00 PM — May 28 8:00 PM, Rio de Janeiro, Weather by CustomWeather, © 2016

Note: Actual official high and low records may vary slightly from our data, if they occured in-between our weather recording intervals... More about our weather records

Advertising

Rio de Janeiro Weather History for the Previous 24 Hours

Scroll right to see more
 ConditionsComfort  
Time TempWeatherWind HumidityBarometerVisibility
8:00 PM
Sat, May 28
72 °FPassing clouds.8 mph88%30.15 "HgN/A
7:00 PM73 °FPassing clouds.8 mph83%30.15 "HgN/A
6:00 PM72 °FPassing clouds.9 mph88%30.15 "HgN/A
5:00 PM73 °FPassing clouds.9 mph78%30.12 "HgN/A
4:00 PM75 °FScattered clouds.9 mph78%30.12 "HgN/A
3:00 PM75 °FPartly sunny.8 mph74%30.12 "HgN/A
2:00 PM77 °FPartly sunny.8 mph74%30.12 "Hg4 mi
1:00 PM75 °FPartly sunny.8 mph78%30.15 "Hg4 mi
12:00 PM75 °FFog.3 mph78%30.18 "Hg3 mi
11:00 AM73 °FFog.3 mph83%30.18 "Hg3 mi
10:00 AM75 °FHaze.6 mph78%30.21 "Hg3 mi
9:00 AM72 °FFog.3 mph88%30.21 "Hg3 mi
8:00 AM70 °FBroken clouds.7 mph94%30.18 "Hg4 mi
7:00 AM68 °FPassing clouds.3 mph94%30.15 "Hg4 mi
6:00 AM70 °FScattered clouds.5 mph88%30.15 "HgN/A
5:00 AM70 °FPassing clouds.3 mph88%30.12 "HgN/A
4:00 AM70 °FPassing clouds.3 mph88%30.12 "HgN/A
3:00 AM70 °FPassing clouds.No wind83%30.12 "HgN/A
2:00 AM70 °FPassing clouds.No wind88%30.12 "HgN/A
1:00 AM70 °FPassing clouds.No wind88%30.15 "HgN/A
12:00 AM72 °FPassing clouds.3 mph83%30.15 "HgN/A
11:00 PM
Fri, May 27
72 °FPassing clouds.No wind83%30.15 "HgN/A
10:00 PM72 °FPassing clouds.3 mph88%30.15 "HgN/A
9:00 PM73 °FPassing clouds.3 mph78%30.15 "HgN/A
Weather by CustomWeather, © 2016

See weather overviewHow to use our weather pages